This is the latest recevied weather packets stored in our database for station/object BMCB-14. If no packets are shown the sender has not sent any weather packets the latest 10 day(s).
| Time | Temp. | Humidity | Pressure | Rain* | Wind** | Luminosity | Snow |
|---|---|---|---|---|---|---|---|
| 1777737048 | 22.78° C | 52% | 1015.8 hPa | 0 mm | - | 284 W/m² | - |
| 1777735248 | 22.78° C | 50% | 1016.1 hPa | 0 mm | - | 436 W/m² | - |
| 1777732846 | 22.78° C | 53% | 1017 hPa | 0 mm | - | 286 W/m² | - |
| 1777728645 | 22.78° C | 55% | 1018 hPa | 0 mm | - | 528 W/m² | - |
| 1777726244 | 21.67° C | 58% | 1018.6 hPa | 0 mm | - | 792 W/m² | - |
| 1777723845 | 21.11° C | 61% | 1019.1 hPa | 0 mm | - | 516 W/m² | - |
| 1777722644 | 20.56° C | 63% | 1019.4 hPa | 0 mm | - | 362 W/m² | - |
| 1777716649 | 20° C | 66% | 1020.3 hPa | 0 mm | - | 538 W/m² | - |
| 1777708848 | 16.67° C | 71% | 1021.2 hPa | 0 mm | - | 494 W/m² | - |
| 1777702247 | 12.78° C | 74% | 1022 hPa | 0 mm | - | 72 W/m² | - |
| 1777698642 | 11.67° C | 79% | 1022.1 hPa | 0 mm | - | 54 W/m² | - |
| 1777697446 | 11.67° C | 80% | 1022.1 hPa | 0 mm | - | 28 W/m² | - |
| 1777693847 | 12.22° C | 67% | 1021.9 hPa | 0.25 mm | - | 0 W/m² | - |
| 1777692645 | 13.33° C | 53% | 1022.2 hPa | 0 mm | - | 0 W/m² | - |
| 1777689045 | 12.78° C | 54% | 1022.6 hPa | 0 mm | - | 0 W/m² | - |
| 1777687847 | 13.33° C | 50% | 1022.5 hPa | 0 mm | - | 0 W/m² | - |
| 1777685448 | 12.78° C | 50% | 1022.4 hPa | 0 mm | - | 0 W/m² | - |
| 1777684846 | 12.78° C | 50% | 1022.5 hPa | 0 mm | - | 0 W/m² | - |
| 1777681845 | 13.89° C | 45% | 1022.8 hPa | 0 mm | - | 0 W/m² | - |
| 1777680047 | 13.33° C | 48% | 1023.2 hPa | 0 mm | - | 0 W/m² | - |
| 1777678248 | 12.22° C | 51% | 1023.3 hPa | 0 mm | - | 0 W/m² | - |
| 1777676448 | 11.67° C | 51% | 1023.7 hPa | 0 mm | - | 0 W/m² | - |
| 1777672247 | 10° C | 60% | 1024.2 hPa | 0 mm | - | 0 W/m² | - |
| 1777671048 | 10° C | 68% | 1024.3 hPa | 0 mm | - | 0 W/m² | - |
| 1777670451 | 10° C | 65% | 1024.3 hPa | 0 mm | - | 0 W/m² | - |
* Rain latest hour (hover to see other rain measurements)
** Current wind speed in m/s (hover to see current wind gust speed)